When you browse on this site, cookies collect data to enhance your experience and personalize the content and advertising you see.
Visit our Privacy Policy to learn more. By continuing to use the site, you agree to this use of cookies and data.
  • In Hungary
  • List of Countries
  • For 7 days
  • Water Temperature
  • Weather Map
  • News
  • Weather Widgets
  • user-avatar
    Login

    Hourly Weather Ignatovka

    Today, 20 January, Monday

    Time Temperature Precipitation Wind Pressure Humidity
    00:00 -1°C° 0 mm 3 mps 757 mmHg 93%
    01:00 -2°C° 0 mm 4 mps 757 mmHg 92%
    02:00 -1°C° 0 mm 4 mps 758 mmHg 93%
    03:00 -2°C° 0 mm 4 mps 757 mmHg 94%
    04:00 -2°C° 0 mm 4 mps 757 mmHg 94%
    05:00 -2°C° 0 mm 4 mps 757 mmHg 94%
    06:00 -2°C° 0 mm 5 mps 757 mmHg 94%
    07:00 -2°C° 0 mm 5 mps 757 mmHg 94%
    08:00 -2°C° 0 mm 5 mps 757 mmHg 93%
    09:00 -2°C° 0 mm 5 mps 757 mmHg 90%
    10:00 -2°C° 0 mm 5 mps 757 mmHg 87%
    11:00 -1°C° 0 mm 5 mps 757 mmHg 85%
    12:00 -1°C° 0 mm 5 mps 757 mmHg 84%
    13:00 -1°C° 0 mm 5 mps 757 mmHg 83%
    14:00 -2°C° 0 mm 6 mps 757 mmHg 83%
    15:00 -2°C° 0 mm 6 mps 757 mmHg 83%
    16:00 -2°C° 0 mm 5 mps 757 mmHg 83%
    17:00 -2°C° 0 mm 5 mps 757 mmHg 83%
    18:00 -2°C° 0 mm 5 mps 756 mmHg 85%
    19:00 -3°C° 0 mm 6 mps 756 mmHg 86%
    20:00 -3°C° 0 mm 6 mps 756 mmHg 88%
    21:00 -3°C° 0 mm 6 mps 755 mmHg 87%
    22:00 -3°C° 0 mm 6 mps 755 mmHg 86%
    23:00 -3°C° 0 mm 6 mps 754 mmHg 85%

    Tomorrow, 21 January, Tuesday

    Time Temperature Precipitation Wind Pressure Humidity
    00:00 -2°C° 0 mm 6 mps 754 mmHg 85%
    01:00 -2°C° 0 mm 6 mps 753 mmHg 85%
    02:00 -2°C° 0 mm 6 mps 753 mmHg 85%
    03:00 -2°C° 0 mm 6 mps 752 mmHg 86%
    04:00 -1°C° 0 mm 6 mps 751 mmHg 87%
    05:00 -1°C° 0 mm 6 mps 750 mmHg 87%
    06:00 -1°C° 0 mm 6 mps 749 mmHg 88%
    07:00 -1°C° 0 mm 7 mps 749 mmHg 89%
    08:00 0°C° 0 mm 7 mps 748 mmHg 89%
    09:00 0°C° 0 mm 7 mps 747 mmHg 90%
    10:00 0°C° 0 mm 7 mps 747 mmHg 91%
    11:00 +2°C° 0 mm 7 mps 746 mmHg 92%
    12:00 +2°C° 0 mm 7 mps 746 mmHg 92%
    13:00 +2°C° 0 mm 7 mps 745 mmHg 91%
    14:00 +3°C° 0 mm 7 mps 745 mmHg 91%
    15:00 +3°C° 0 mm 7 mps 744 mmHg 91%
    16:00 +3°C° 0 mm 7 mps 743 mmHg 90%
    17:00 +2°C° 0 mm 8 mps 742 mmHg 90%
    18:00 +2°C° 0.1 mm 8 mps 742 mmHg 89%
    19:00 +4°C° 0.1 mm 8 mps 741 mmHg 87%
    20:00 +4°C° 0.1 mm 8 mps 741 mmHg 86%
    21:00 +2°C° 0.1 mm 8 mps 741 mmHg 86%
    22:00 +3°C° 0.1 mm 7 mps 741 mmHg 85%
    23:00 +3°C° 0.1 mm 7 mps 741 mmHg 84%

    Day after tomorrow, 22 January, Wednesday

    Time Temperature Precipitation Wind Pressure Humidity
    00:00 +2°C° 0 mm 6 mps 741 mmHg 82%
    01:00 +1°C° 0 mm 6 mps 741 mmHg 80%
    02:00 -2°C° 0 mm 6 mps 741 mmHg 78%
    03:00 -2°C° 0 mm 6 mps 740 mmHg 77%
    04:00 -1°C° 0 mm 5 mps 740 mmHg 77%
    05:00 -2°C° 0 mm 5 mps 739 mmHg 76%
    06:00 -2°C° 0 mm 4 mps 738 mmHg 78%
    07:00 -2°C° 0 mm 4 mps 738 mmHg 79%
    08:00 -2°C° 0 mm 4 mps 737 mmHg 80%
    09:00 -1°C° 0 mm 5 mps 737 mmHg 78%
    10:00 -1°C° 0 mm 5 mps 737 mmHg 76%
    11:00 -2°C° 0 mm 6 mps 736 mmHg 74%
    12:00 -2°C° 0.1 mm 7 mps 736 mmHg 74%
    13:00 -2°C° 0.1 mm 7 mps 736 mmHg 73%
    14:00 -2°C° 0.1 mm 8 mps 736 mmHg 73%
    15:00 -2°C° 0.1 mm 7 mps 736 mmHg 72%
    16:00 -3°C° 0.1 mm 7 mps 736 mmHg 70%
    17:00 -3°C° 0.1 mm 6 mps 736 mmHg 69%
    18:00 -4°C° 0 mm 6 mps 736 mmHg 73%
    19:00 -4°C° 0 mm 7 mps 737 mmHg 77%
    20:00 -4°C° 0 mm 7 mps 737 mmHg 81%
    21:00 -4°C° 0.1 mm 7 mps 738 mmHg 78%
    22:00 -4°C° 0.1 mm 7 mps 739 mmHg 74%
    23:00 -4°C° 0.1 mm 7 mps 739 mmHg 71%

    23 January, Thursday

    Time Temperature Precipitation Wind Pressure Humidity
    00:00 -6°C° 0 mm 7 mps 740 mmHg 69%
    01:00 -6°C° 0 mm 7 mps 741 mmHg 67%
    02:00 -7°C° 0 mm 7 mps 741 mmHg 64%
    03:00 -7°C° 0 mm 7 mps 742 mmHg 61%
    04:00 -7°C° 0 mm 7 mps 742 mmHg 58%
    05:00 -7°C° 0 mm 7 mps 743 mmHg 56%
    06:00 -7°C° 0 mm 7 mps 744 mmHg 55%
    07:00 -7°C° 0 mm 7 mps 744 mmHg 54%
    08:00 -6°C° 0 mm 6 mps 745 mmHg 53%
    09:00 -7°C° 0 mm 7 mps 746 mmHg 51%
    10:00 -6°C° 0 mm 7 mps 746 mmHg 48%
    11:00 -6°C° 0 mm 7 mps 747 mmHg 46%
    12:00 -4°C° 0 mm 7 mps 747 mmHg 47%
    13:00 -4°C° 0 mm 7 mps 747 mmHg 48%
    14:00 -5°C° 0 mm 8 mps 747 mmHg 50%
    15:00 -4°C° 0 mm 7 mps 748 mmHg 53%
    16:00 -4°C° 0 mm 6 mps 748 mmHg 57%
    17:00 -5°C° 0 mm 5 mps 748 mmHg 60%
    18:00 -5°C° 0 mm 5 mps 748 mmHg 64%
    19:00 -4°C° 0 mm 4 mps 749 mmHg 68%
    20:00 -4°C° 0 mm 4 mps 749 mmHg 72%
    21:00 -4°C° 0 mm 4 mps 749 mmHg 76%
    22:00 -4°C° 0 mm 4 mps 749 mmHg 80%
    23:00 -4°C° 0 mm 4 mps 750 mmHg 83%

    24 January, Friday

    Time Temperature Precipitation Wind Pressure Humidity
    00:00 -4°C° 0 mm 4 mps 749 mmHg 84%
    01:00 -4°C° 0 mm 4 mps 749 mmHg 84%
    02:00 -5°C° 0 mm 5 mps 748 mmHg 84%
    03:00 -4°C° 0 mm 5 mps 748 mmHg 82%
    04:00 -4°C° 0 mm 5 mps 747 mmHg 79%
    05:00 -4°C° 0 mm 6 mps 747 mmHg 77%
    06:00 -4°C° 0 mm 6 mps 746 mmHg 78%
    07:00 -4°C° 0 mm 6 mps 746 mmHg 78%
    08:00 -2°C° 0 mm 5 mps 746 mmHg 79%
    09:00 -3°C° 0 mm 6 mps 746 mmHg 81%
    10:00 -2°C° 0 mm 6 mps 745 mmHg 84%
    11:00 -2°C° 0 mm 6 mps 745 mmHg 86%
    12:00 -2°C° 0 mm 6 mps 745 mmHg 86%
    13:00 -1°C° 0 mm 6 mps 745 mmHg 86%
    14:00 -1°C° 0 mm 7 mps 745 mmHg 86%
    15:00 -1°C° 0 mm 7 mps 745 mmHg 85%
    16:00 -1°C° 0 mm 7 mps 744 mmHg 84%
    17:00 -2°C° 0 mm 6 mps 744 mmHg 84%
    18:00 -2°C° 0 mm 6 mps 744 mmHg 83%
    19:00 -2°C° 0 mm 6 mps 744 mmHg 82%
    20:00 -2°C° 0 mm 6 mps 744 mmHg 82%
    21:00 -2°C° 0 mm 6 mps 744 mmHg 81%
    22:00 -2°C° 0 mm 6 mps 744 mmHg 80%
    23:00 -2°C° 0 mm 6 mps 743 mmHg 79%

    25 January, Saturday

    Time Temperature Precipitation Wind Pressure Humidity
    00:00 -2°C° 0 mm 6 mps 743 mmHg 80%
    01:00 -1°C° 0 mm 5 mps 743 mmHg 81%
    02:00 -1°C° 0 mm 5 mps 743 mmHg 82%
    03:00 -1°C° 0 mm 5 mps 743 mmHg 82%
    04:00 -1°C° 0 mm 5 mps 743 mmHg 82%
    05:00 -1°C° 0 mm 5 mps 743 mmHg 82%
    06:00 -1°C° 0 mm 5 mps 743 mmHg 83%
    07:00 -2°C° 0 mm 4 mps 743 mmHg 83%
    08:00 -2°C° 0 mm 4 mps 743 mmHg 84%
    09:00 -2°C° 0 mm 4 mps 743 mmHg 84%
    10:00 -2°C° 0 mm 4 mps 743 mmHg 84%
    11:00 -2°C° 0 mm 4 mps 743 mmHg 85%
    12:00 -2°C° 0 mm 4 mps 743 mmHg 87%
    13:00 -2°C° 0 mm 4 mps 743 mmHg 89%
    14:00 -1°C° 0 mm 4 mps 743 mmHg 90%
    15:00 0°C° 0 mm 3 mps 743 mmHg 91%
    16:00 -1°C° 0 mm 3 mps 743 mmHg 91%
    17:00 -1°C° 0 mm 3 mps 743 mmHg 92%
    18:00 -1°C° 0 mm 3 mps 743 mmHg 93%
    19:00 -1°C° 0 mm 3 mps 743 mmHg 93%
    20:00 -1°C° 0 mm 3 mps 743 mmHg 94%
    21:00 0°C° 0 mm 3 mps 744 mmHg 95%
    22:00 0°C° 0 mm 3 mps 744 mmHg 95%
    23:00 +1°C° 0 mm 2 mps 744 mmHg 96%
    Show more